Find Aether 2

NORAD ID: 58299 Int'l Des: 2023-174 Owner: KEPLER Country: CA operational
LEOCIRCULARRETROGRADESSO

Current View

Loading 3D Globe...

About Aether 2

Description loading...

Upcoming Passes

Passes for default location (London). Set your location on the main map for personalized predictions.

Altitude History

Loading altitude history...

Two-Line Element Set

1 58299U 23174AV 26151.11309589 .00008046 00000-0 24426-3 0 9990
2 58299 97.3907 234.3532 0006643 197.7903 162.3108 15.34336416142618
Epoch: May 31, 2026 • Age: 15 hours

Current Status

Altitude 486.7 km
Velocity 7.62 km/s
Sub-Earth Point -70.77°S, 124.41°W
Launch Date Nov 11, 2023
Age 2.5 years
Type other

Technical Details

Classification Payload
Mass 125.00 kg
Dry Mass 125.00 kg
Total Mass 125.00 kg
Length 0.50 m
Diameter 0.50 m
Span 2.00 m
Shape Box + 2 pan
Manufacturer KEPLER/UTIAS
Bus Type Aether
Phase Status In Orbit
Owner/State KEPLER/CA

Most Searched